| time (UTC) | temp F | wind direction | speed MPH | gust MPH | rain 1hr in | rain 24hr in | rain mn in | humidity % | barometer mb |
| 20260503180036 | 76 | 334 | 2.0 | 6.0 | 0.00 | 0.00 | 0.00 | 45 | 1014.1 |
| 20260503173037 | 74 | 262 | 1.0 | 4.0 | 0.00 | 0.00 | 0.00 | 45 | 1014.4 |
| 20260503171535 | 73 | 309 | 0.0 | 4.0 | 0.00 | 0.00 | 0.00 | 46 | 1014.5 |
| 20260503110107 | 47 | 164 | 2.0 | 4.0 | 0.00 | 0.00 | 0.00 | 85 | 1014.9 |
| 20260503081534 | 50 | 102 | 0.0 | 3.0 | 0.00 | 0.00 | 0.00 | 82 | 1014.9 |
| 20260503071532 | 52 | 185 | 2.0 | 4.0 | 0.00 | 0.00 | 0.00 | 83 | 1014.9 |
| 20260503054605 | 56 | 185 | 3.0 | 6.0 | 0.00 | 0.00 | 0.00 | 79 | 1014.6 |
| 20260503053036 | 56 | 153 | 3.0 | 5.0 | 0.00 | 0.00 | 0.00 | 77 | 1014.5 |
| 20260503051536 | 57 | 112 | 0.0 | 2.0 | 0.00 | 0.00 | 0.00 | 75 | 1014.5 |
| 20260503050035 | 58 | 159 | 3.0 | 4.0 | 0.00 | 0.00 | 0.00 | 74 | 1014.5 |
| 20260503044535 | 58 | 190 | 1.0 | 4.0 | 0.00 | 0.00 | 0.00 | 73 | 1014.5 |
| 20260503043037 | 59 | 186 | 0.0 | 3.0 | 0.00 | 0.00 | 0.00 | 70 | 1014.4 |
| 20260503041536 | 61 | 198 | 1.0 | 4.0 | 0.00 | 0.00 | 0.00 | 68 | 1014.2 |
| 20260503040040 | 63 | 3 | 0.0 | 3.0 | 0.00 | 0.00 | 0.00 | 64 | 1014.0 |
| 20260503034533 | 64 | 95 | 0.0 | 2.0 | 0.00 | 0.00 | 0.00 | 60 | 1013.8 |
| 20260503033036 | 65 | 155 | 3.0 | 5.0 | 0.00 | 0.00 | 0.00 | 61 | 1013.5 |
| 20260503031643 | 66 | 164 | 2.0 | 5.0 | 0.00 | 0.00 | 0.00 | 64 | 1013.2 |
| 20260503030045 | 67 | 162 | 3.0 | 4.0 | 0.00 | 0.00 | 0.00 | 65 | 1012.9 |
| 20260503024610 | 68 | 157 | 2.0 | 4.0 | 0.00 | 0.00 | 0.00 | 63 | 1012.7 |
| 20260503023036 | 69 | 157 | 0.0 | 1.0 | 0.00 | 0.00 | 0.00 | 59 | 1012.6 |
| 20260503021534 | 71 | 165 | 1.0 | 3.0 | 0.00 | 0.00 | 0.00 | 57 | 1012.5 |
| 20260503013036 | 76 | 85 | 1.0 | 5.0 | 0.00 | 0.00 | 0.00 | 38 | 1012.5 |
| 20260503011534 | 77 | 93 | 2.0 | 7.0 | 0.00 | 0.00 | 0.00 | 38 | 1012.5 |
| 20260503010032 | 78 | 110 | 0.0 | 7.0 | 0.00 | 0.00 | 0.00 | 37 | 1012.5 |
| 20260503004535 | 77 | 86 | 1.0 | 4.0 | 0.00 | 0.00 | 0.00 | 35 | 1012.5 |
| 20260503003033 | 78 | 101 | 2.0 | 7.0 | 0.00 | 0.00 | 0.00 | 36 | 1012.4 |
| 20260503001641 | 78 | 57 | 3.0 | 10.0 | 0.00 | 0.00 | 0.00 | 36 | 1012.5 |
| 20260502234537 | 79 | 52 | 4.0 | 10.0 | 0.00 | 0.00 | 0.00 | 37 | 1012.7 |
| 20260502231536 | 80 | 43 | 8.0 | 16.0 | 0.00 | 0.00 | 0.00 | 35 | 1013.2 |
| 20260502223108 | 80 | 101 | 6.0 | 12.0 | 0.00 | 0.00 | 0.00 | 33 | 1013.3 |
| 20260502221533 | 78 | 71 | 5.0 | 14.0 | 0.00 | 0.00 | 0.00 | 38 | 1013.5 |
| 20260502214536 | 76 | 315 | 3.0 | 13.0 | 0.00 | 0.00 | 0.00 | 45 | 1013.8 |
| 20260502213035 | 75 | 292 | 2.0 | 6.0 | 0.00 | 0.00 | 0.00 | 48 | 1014.0 |
| 20260502211535 | 74 | 323 | 3.0 | 7.0 | 0.00 | 0.00 | 0.00 | 52 | 1014.2 |
| 20260502204534 | 70 | 304 | 2.0 | 6.0 | 0.00 | 0.00 | 0.00 | 56 | 1014.5 |
| 20260502203035 | 70 | 293 | 4.0 | 9.0 | 0.00 | 0.00 | 0.00 | 56 | 1014.5 |
| 20260502201535 | 72 | 307 | 3.0 | 7.0 | 0.00 | 0.00 | 0.00 | 55 | 1014.6 |
| 20260502200035 | 71 | 107 | 1.0 | 7.0 | 0.00 | 0.00 | 0.00 | 54 | 1014.7 |
| 20260502194534 | 68 | 217 | 2.0 | 6.0 | 0.00 | 0.00 | 0.00 | 61 | 1015.0 |
| 20260502191610 | 64 | 63 | 1.0 | 6.0 | 0.00 | 0.00 | 0.00 | 68 | 1015.4 |
| 20260502184534 | 65 | 337 | 0.0 | 3.0 | 0.00 | 0.00 | 0.00 | 63 | 1016.1 |
| 20260502183034 | 66 | 335 | 2.0 | 6.0 | 0.00 | 0.00 | 0.00 | 62 | 1016.1 |
| 20260502181535 | 66 | 258 | 0.0 | 1.0 | 0.00 | 0.00 | 0.00 | 61 | 1016.1 |